M I D A S
Marine Information and Data Acquisition System
Tripno 1744 of the Zeeleeuw from 2009-08-03 06:53:44 to 2009-08-03 07:55:47
Back to CruiseResearch ActivitiesStationsMapUnderway DataData graphs

EquipmentUnitsComments
TimeDGPSUTC
LatitudeDGPSDM.mWGS84
LongitudeDGPSDM.mWGS84
SpeedMeteo Stationm/sRelative wind speed
DirectionMeteo StationdegRelative wind direction
TemperatureMeteo Stationdeg CelciusAir temperature
PressureMeteo StationPaAtmospheric pressure
HumidityMeteo Station%Relative humidity
Missing or incorrect values are displayed as -999
Metereological data collected by the RV Zeeleeuw from 2009-08-03 06:53:03 to 2009-08-03 08:01:03
Time Latitude Longitude Speed Direction Temperature Pressure Humidity
2009-08-03 06:53:13 51°15.038 2°51.848 11.9 32 15 101590 54
2009-08-03 06:53:18 51°15.041 2°51.822 9.8 25 15 101590 53
2009-08-03 06:53:23 51°15.044 2°51.796 12.1 36 15 101590 53
2009-08-03 06:53:28 51°15.047 2°51.771 10.1 27 15 101580 54
2009-08-03 06:53:34 51°15.05 2°51.739 11.1 35 15 101580 54
2009-08-03 06:53:38 51°15.053 2°51.719 11.5 317 15 101590 53
2009-08-03 06:53:43 51°15.056 2°51.693 12.8 316 15 101590 53
2009-08-03 06:53:48 51°15.059 2°51.667 11 316 15 101580 54
2009-08-03 06:53:53 51°15.062 2°51.642 10.7 37 15 101580 54
2009-08-03 06:53:58 51°15.065 2°51.616 10.5 315 15.1 101580 54
2009-08-03 06:54:03 51°15.068 2°51.59 12.8 315 15.1 101580 54
2009-08-03 06:54:08 51°15.071 2°51.564 11 23 15.1 101590 52
2009-08-03 06:54:13 51°15.074 2°51.538 12.7 316 15.1 101590 52
2009-08-03 06:54:18 51°15.078 2°51.512 12.9 26 15.1 101580 53
2009-08-03 06:54:23 51°15.081 2°51.487 10.2 38 15.1 101580 53
2009-08-03 06:54:28 51°15.084 2°51.461 11 28 15.1 101580 54
2009-08-03 06:54:33 51°15.088 2°51.436 11.9 33 15.1 101580 54
2009-08-03 06:54:38 51°15.092 2°51.41 12 23 15.1 101580 53
2009-08-03 06:54:43 51°15.095 2°51.385 12.8 33 15.1 101580 53
2009-08-03 06:54:48 51°15.099 2°51.359 11.7 25 15.1 101580 54
2009-08-03 06:54:53 51°15.103 2°51.334 12.1 35 15.1 101580 54
2009-08-03 06:54:59 51°15.108 2°51.303 13.3 20 15.1 101580 54
2009-08-03 06:55:03 51°15.112 2°51.283 10.4 39 15.1 101580 54
2009-08-03 06:55:08 51°15.116 2°51.258 11.7 28 15.1 101580 53
2009-08-03 06:55:13 51°15.12 2°51.233 9.6 34 15.1 101580 53
2009-08-03 06:55:18 51°15.125 2°51.208 11.7 19 15.1 101580 54
2009-08-03 06:55:23 51°15.13 2°51.183 9.6 37 15.1 101580 54
2009-08-03 06:55:28 51°15.135 2°51.158 10.3 22 15.2 101580 54
2009-08-03 06:55:33 51°15.14 2°51.133 9.9 35 15.2 101580 54
2009-08-03 06:55:38 51°15.145 2°51.108 12.8 21 15.1 101580 54
2009-08-03 06:55:43 51°15.15 2°51.083 12.5 40 15.1 101580 54
2009-08-03 06:55:48 51°15.155 2°51.058 11.2 30 15.1 101580 53
2009-08-03 06:55:53 51°15.16 2°51.033 10.2 36 15.1 101580 53
2009-08-03 06:55:58 51°15.165 2°51.008 9.9 26 15.2 101580 54
2009-08-03 06:56:03 51°15.169 2°50.983 11.4 34 15.2 101580 54
2009-08-03 06:56:08 51°15.174 2°50.958 11.6 21 15.1 101580 54
2009-08-03 06:56:13 51°15.179 2°50.933 12.1 31 15.1 101580 54
2009-08-03 06:56:18 51°15.184 2°50.907 11.3 23 15.1 101580 53
2009-08-03 06:56:23 51°15.189 2°50.882 9.6 36 15.1 101580 53
2009-08-03 06:56:28 51°15.193 2°50.857 11.1 23 15.1 101580 54
2009-08-03 06:56:33 51°15.198 2°50.832 9.1 38 15.1 101580 54
2009-08-03 06:56:38 51°15.203 2°50.807 11.2 22 15.1 101580 54
2009-08-03 06:56:43 51°15.208 2°50.782 11.5 316 15.1 101580 54
2009-08-03 06:56:48 51°15.213 2°50.757 11.8 26 15.1 101580 53
2009-08-03 06:56:53 51°15.217 2°50.732 10.9 31 15.1 101580 53
2009-08-03 06:56:58 51°15.222 2°50.707 11.9 23 15.2 101580 54
2009-08-03 06:57:03 51°15.227 2°50.681 10.4 36 15.2 101580 54
2009-08-03 06:57:08 51°15.231 2°50.656 10.8 24 15.2 101580 53
2009-08-03 06:57:13 51°15.236 2°50.631 10.2 37 15.2 101580 53
2009-08-03 06:57:18 51°15.241 2°50.606 13.4 23 15.2 101580 54
2009-08-03 06:57:23 51°15.246 2°50.581 9.6 32 15.2 101580 54
2009-08-03 06:57:28 51°15.25 2°50.556 10.6 21 15.2 101580 54
2009-08-03 06:57:34 51°15.256 2°50.526 12.7 37 15.2 101580 54
2009-08-03 06:57:38 51°15.26 2°50.505 10.5 27 15.2 101580 54
2009-08-03 06:57:43 51°15.264 2°50.48 12.3 35 15.2 101580 54
2009-08-03 06:57:48 51°15.269 2°50.455 10.3 22 15.2 101580 54
2009-08-03 06:57:53 51°15.273 2°50.429 11.7 36 15.2 101580 54
2009-08-03 06:57:58 51°15.277 2°50.404 10.4 27 15.2 101580 54
2009-08-03 06:58:03 51°15.282 2°50.379 12.1 31 15.2 101580 54
2009-08-03 06:58:08 51°15.286 2°50.353 10 23 15.2 101580 54
2009-08-03 06:58:13 51°15.29 2°50.328 11.4 34 15.2 101580 54
2009-08-03 06:58:18 51°15.295 2°50.303 9.5 25 15.2 101580 54
2009-08-03 06:58:23 51°15.3 2°50.278 11.6 32 15.2 101580 54
2009-08-03 06:58:28 51°15.304 2°50.252 11.6 25 15.2 101580 54
2009-08-03 06:58:34 51°15.309 2°50.222 11.6 34 15.2 101580 54
2009-08-03 06:58:38 51°15.313 2°50.202 11.6 21 15.2 101580 53
2009-08-03 06:58:43 51°15.318 2°50.177 9.3 38 15.2 101580 53
2009-08-03 06:58:48 51°15.323 2°50.152 9.7 28 15.2 101580 54
2009-08-03 06:58:53 51°15.328 2°50.127 11 34 15.2 101580 54
2009-08-03 06:58:58 51°15.333 2°50.102 11.8 20 15.2 101580 54
2009-08-03 06:59:03 51°15.338 2°50.077 10.3 38 15.2 101580 54
2009-08-03 06:59:07 51°15.342 2°50.057 11.8 24 15.2 101580 53
2009-08-03 06:59:13 51°15.348 2°50.027 11.3 36 15.2 101580 53
2009-08-03 06:59:18 51°15.353 2°50.002 10.4 22 15.2 101580 54
2009-08-03 06:59:23 51°15.358 2°49.977 10.2 35 15.2 101580 54
2009-08-03 06:59:27 51°15.362 2°49.957 10.9 25 15.3 101580 53
2009-08-03 06:59:33 51°15.368 2°49.927 12.5 315 15.3 101580 53
2009-08-03 06:59:38 51°15.372 2°49.902 12 23 15.3 101580 55
2009-08-03 06:59:43 51°15.377 2°49.878 10.2 37 15.3 101580 55
2009-08-03 06:59:47 51°15.381 2°49.857 11.7 25 15.4 101580 55
2009-08-03 06:59:53 51°15.387 2°49.828 10.1 36 15.4 101580 55
2009-08-03 06:59:58 51°15.392 2°49.803 9.7 22 15.4 101580 54
2009-08-03 07:00:03 51°15.397 2°49.778 10.5 36 15.4 101580 54
2009-08-03 07:00:08 51°15.402 2°49.753 10.7 20 15.4 101580 55
2009-08-03 07:00:14 51°15.408 2°49.723 13 34 15.4 101580 55
2009-08-03 07:00:18 51°15.411 2°49.703 11.3 25 15.4 101580 53
2009-08-03 07:00:23 51°15.416 2°49.678 12.1 34 15.4 101580 53
2009-08-03 07:00:28 51°15.421 2°49.653 12.1 21 15.4 101580 54
2009-08-03 07:00:34 51°15.427 2°49.624 12.6 34 15.4 101580 54
2009-08-03 07:00:38 51°15.431 2°49.604 10.7 27 15.4 101580 54
2009-08-03 07:00:43 51°15.435 2°49.579 10.4 39 15.4 101580 54
2009-08-03 07:00:48 51°15.44 2°49.554 10 28 15.4 101580 54
2009-08-03 07:00:54 51°15.446 2°49.524 11.7 37 15.4 101580 54
2009-08-03 07:00:58 51°15.45 2°49.504 12.5 25 15.4 101580 54
2009-08-03 07:01:03 51°15.455 2°49.479 11.2 315 15.4 101580 54
2009-08-03 07:01:08 51°15.46 2°49.455 13.2 316 15.4 101580 54
2009-08-03 07:01:13 51°15.465 2°49.43 12.7 37 15.4 101580 54
2009-08-03 07:01:18 51°15.469 2°49.405 10.4 27 15.4 101580 53
2009-08-03 07:01:23 51°15.474 2°49.38 11.2 37 15.4 101580 53
2009-08-03 07:01:28 51°15.479 2°49.356 11.5 27 15.5 101590 54
2009-08-03 07:01:34 51°15.485 2°49.326 12.8 31 15.5 101590 54
2009-08-03 07:01:39 51°15.49 2°49.301 11.2 22 15.5 101580 54
2009-08-03 07:01:43 51°15.494 2°49.281 10.8 35 15.5 101580 54
2009-08-03 07:01:48 51°15.499 2°49.257 10 316 15.5 101580 53
2009-08-03 07:01:53 51°15.504 2°49.232 11 40 15.5 101580 53
2009-08-03 07:01:58 51°15.509 2°49.207 11 26 15.5 101580 54
2009-08-03 07:02:03 51°15.513 2°49.182 10.1 33 15.5 101580 54
2009-08-03 07:02:08 51°15.518 2°49.158 12.4 20 15.5 101580 52
2009-08-03 07:02:13 51°15.523 2°49.133 12.5 38 15.5 101580 52
2009-08-03 07:02:18 51°15.528 2°49.109 10.8 28 15.5 101580 53
2009-08-03 07:02:23 51°15.532 2°49.084 10.6 35 15.5 101580 53
2009-08-03 07:02:28 51°15.537 2°49.059 10.7 24 15.5 101580 54
2009-08-03 07:02:33 51°15.541 2°49.034 10.2 32 15.5 101580 54
2009-08-03 07:02:38 51°15.546 2°49.01 10.3 21 15.5 101580 54
2009-08-03 07:02:43 51°15.551 2°48.985 12 33 15.5 101580 54
2009-08-03 07:02:49 51°15.557 2°48.956 12.1 24 15.5 101580 53
2009-08-03 07:02:53 51°15.56 2°48.936 9.8 37 15.5 101580 53
2009-08-03 07:02:58 51°15.565 2°48.912 11.7 25 15.5 101580 54
2009-08-03 07:03:03 51°15.57 2°48.887 10.1 37 15.5 101580 54
2009-08-03 07:03:08 51°15.574 2°48.863 11.4 24 15.5 101580 54
2009-08-03 07:03:13 51°15.579 2°48.838 10.5 315 15.5 101580 54
2009-08-03 07:03:18 51°15.584 2°48.813 10.8 315 15.5 101580 55
2009-08-03 07:03:23 51°15.588 2°48.789 12.6 32 15.5 101580 55
2009-08-03 07:03:28 51°15.593 2°48.765 10.7 24 15.5 101580 54
2009-08-03 07:03:33 51°15.597 2°48.74 10.3 39 15.5 101580 54
2009-08-03 07:03:38 51°15.602 2°48.715 11.5 28 15.6 101590 54
2009-08-03 07:03:43 51°15.607 2°48.691 11.9 35 15.6 101590 54
2009-08-03 07:03:48 51°15.611 2°48.666 12 27 15.6 101590 54
2009-08-03 07:03:53 51°15.616 2°48.642 10.5 39 15.6 101590 54
2009-08-03 07:03:58 51°15.621 2°48.617 10.2 28 15.6 101590 53
2009-08-03 07:04:03 51°15.625 2°48.592 12.1 316 15.6 101590 53
2009-08-03 07:04:07 51°15.629 2°48.573 10.4 315 15.6 101590 53
2009-08-03 07:04:13 51°15.635 2°48.543 10.2 316 15.6 101590 53
2009-08-03 07:04:18 51°15.639 2°48.519 11.8 20 15.6 101590 54
2009-08-03 07:04:23 51°15.644 2°48.494 10.6 315 15.6 101590 54
2009-08-03 07:04:27 51°15.648 2°48.474 10.3 315 15.6 101590 55
2009-08-03 07:04:33 51°15.653 2°48.445 11.5 37 15.6 101590 55
2009-08-03 07:04:38 51°15.658 2°48.42 10.6 24 15.6 101580 53
2009-08-03 07:04:43 51°15.663 2°48.395 12.5 316 15.6 101580 53
2009-08-03 07:04:48 51°15.667 2°48.371 10.3 316 15.6 101580 52
2009-08-03 07:04:54 51°15.673 2°48.341 10.4 317 15.6 101580 52
2009-08-03 07:04:58 51°15.676 2°48.321 12.6 315 15.6 101590 53
2009-08-03 07:05:03 51°15.681 2°48.296 11.8 38 15.6 101590 53
2009-08-03 07:05:08 51°15.686 2°48.272 9.6 29 15.6 101590 54
2009-08-03 07:05:14 51°15.691 2°48.242 12.2 39 15.6 101590 54
2009-08-03 07:05:18 51°15.695 2°48.222 11.3 29 15.6 101590 54
2009-08-03 07:05:23 51°15.699 2°48.197 11.5 34 15.6 101590 54
2009-08-03 07:05:28 51°15.704 2°48.173 11 27 15.6 101590 53
2009-08-03 07:05:34 51°15.71 2°48.143 12.2 38 15.6 101590 53
2009-08-03 07:05:38 51°15.714 2°48.123 11.6 29 15.6 101590 54
2009-08-03 07:05:43 51°15.718 2°48.098 9.9 38 15.6 101590 54
2009-08-03 07:05:48 51°15.723 2°48.073 12.3 23 15.6 101590 54
2009-08-03 07:05:53 51°15.728 2°48.048 10.7 315 15.6 101590 54
2009-08-03 07:05:58 51°15.733 2°48.023 10.4 28 15.6 101590 55
2009-08-03 07:06:03 51°15.737 2°47.998 10.2 38 15.6 101590 55
2009-08-03 07:06:08 51°15.742 2°47.973 11.6 27 15.7 101580 53
2009-08-03 07:06:13 51°15.746 2°47.948 9.8 37 15.7 101580 53
2009-08-03 07:06:18 51°15.751 2°47.923 11.8 26 15.7 101590 54
2009-08-03 07:06:23 51°15.756 2°47.898 10.2 32 15.7 101590 54
2009-08-03 07:06:28 51°15.76 2°47.873 11.5 21 15.7 101580 54
2009-08-03 07:06:34 51°15.766 2°47.843 10.1 35 15.7 101580 54
2009-08-03 07:06:38 51°15.769 2°47.823 11.6 28 15.7 101590 54
2009-08-03 07:06:43 51°15.774 2°47.798 9.6 36 15.7 101590 54
2009-08-03 07:06:48 51°15.778 2°47.773 12.2 26 15.7 101590 54
2009-08-03 07:06:53 51°15.783 2°47.748 11.9 316 15.7 101590 54
2009-08-03 07:06:58 51°15.788 2°47.723 12.5 316 15.7 101580 54
2009-08-03 07:07:03 51°15.793 2°47.698 12 315 15.7 101580 54
2009-08-03 07:07:08 51°15.798 2°47.673 10.1 317 15.7 101590 53
2009-08-03 07:07:13 51°15.802 2°47.648 11.8 317 15.7 101590 53
2009-08-03 07:07:18 51°15.807 2°47.623 10.2 316 15.7 101580 55
2009-08-03 07:07:23 51°15.812 2°47.598 11.9 34 15.7 101580 55
2009-08-03 07:07:28 51°15.816 2°47.573 9.5 27 15.7 101590 54
2009-08-03 07:07:34 51°15.822 2°47.543 9.8 38 15.7 101590 54
2009-08-03 07:07:38 51°15.826 2°47.523 11.1 25 15.8 101590 54
2009-08-03 07:07:43 51°15.831 2°47.498 10.3 34 15.8 101590 54
2009-08-03 07:07:48 51°15.835 2°47.473 10.3 21 15.7 101580 53
2009-08-03 07:07:54 51°15.84 2°47.443 12 32 15.7 101580 53
2009-08-03 07:07:58 51°15.844 2°47.422 11.7 23 15.7 101590 54
2009-08-03 07:08:03 51°15.848 2°47.397 10.1 39 15.7 101590 54
2009-08-03 07:08:08 51°15.852 2°47.372 11.6 24 15.7 101590 53
2009-08-03 07:08:13 51°15.857 2°47.347 11.9 36 15.7 101590 53
2009-08-03 07:08:19 51°15.863 2°47.317 9.9 26 15.7 101590 53
2009-08-03 07:08:23 51°15.867 2°47.297 12.6 39 15.7 101590 53
2009-08-03 07:08:28 51°15.871 2°47.272 10.7 23 15.7 101590 53
2009-08-03 07:08:33 51°15.876 2°47.247 10.1 37 15.7 101590 53
2009-08-03 07:08:38 51°15.881 2°47.222 11.9 316 15.7 101590 54
2009-08-03 07:08:43 51°15.886 2°47.197 10.4 39 15.7 101590 54
2009-08-03 07:08:48 51°15.891 2°47.173 10.4 28 15.7 101590 55
2009-08-03 07:08:53 51°15.895 2°47.148 9.8 40 15.7 101590 55
2009-08-03 07:08:58 51°15.9 2°47.123 12.2 23 15.7 101590 54
2009-08-03 07:09:03 51°15.905 2°47.098 12.1 315 15.7 101590 54
2009-08-03 07:09:07 51°15.908 2°47.078 12.3 317 15.7 101590 54
2009-08-03 07:09:13 51°15.914 2°47.048 9.4 35 15.7 101590 54
2009-08-03 07:09:18 51°15.919 2°47.023 11.9 24 15.7 101590 54
2009-08-03 07:09:23 51°15.923 2°46.998 9.4 39 15.7 101590 54
2009-08-03 07:09:27 51°15.927 2°46.979 10.8 26 15.7 101580 54
2009-08-03 07:09:33 51°15.933 2°46.949 10.8 36 15.7 101580 54
2009-08-03 07:09:38 51°15.937 2°46.924 10.7 24 15.7 101590 53
2009-08-03 07:09:43 51°15.942 2°46.899 10.5 315 15.7 101590 53
2009-08-03 07:09:48 51°15.947 2°46.875 10.9 25 15.7 101590 53
2009-08-03 07:09:54 51°15.953 2°46.845 12.7 316 15.7 101590 53
2009-08-03 07:09:58 51°15.957 2°46.825 12.9 318 15.7 101590 53
2009-08-03 07:10:03 51°15.961 2°46.8 12 40 15.7 101590 53
2009-08-03 07:10:08 51°15.966 2°46.775 9.8 28 15.7 101590 54
2009-08-03 07:10:13 51°15.97 2°46.751 12.7 316 15.7 101590 54
2009-08-03 07:10:18 51°15.975 2°46.726 12.6 21 15.8 101580 54
2009-08-03 07:10:23 51°15.98 2°46.701 12.4 37 15.8 101580 54
2009-08-03 07:10:28 51°15.985 2°46.677 9.8 315 15.8 101590 55
2009-08-03 07:10:33 51°15.99 2°46.652 12.4 36 15.8 101590 55
2009-08-03 07:10:38 51°15.995 2°46.627 10.6 28 15.8 101590 55
2009-08-03 07:10:43 51°16 2°46.603 10.6 316 15.8 101590 55
2009-08-03 07:10:48 51°16.005 2°46.578 11.8 316 15.8 101590 53
2009-08-03 07:10:53 51°16.01 2°46.554 10.3 316 15.8 101590 53
2009-08-03 07:10:58 51°16.014 2°46.529 10.4 316 15.7 101590 53
2009-08-03 07:11:03 51°16.019 2°46.504 10.3 315 15.7 101590 53
2009-08-03 07:11:08 51°16.024 2°46.479 11.6 316 15.8 101590 55
2009-08-03 07:11:13 51°16.029 2°46.455 9.9 315 15.8 101590 55
2009-08-03 07:11:18 51°16.033 2°46.43 10 21 15.8 101590 53
2009-08-03 07:11:23 51°16.038 2°46.406 11.6 34 15.8 101590 53
2009-08-03 07:11:28 51°16.043 2°46.381 11.7 20 15.8 101580 53
2009-08-03 07:11:34 51°16.048 2°46.352 11.8 36 15.8 101580 53
2009-08-03 07:11:38 51°16.052 2°46.332 11.6 22 15.8 101590 53
2009-08-03 07:11:43 51°16.056 2°46.308 11.7 316 15.8 101590 53
2009-08-03 07:11:48 51°16.061 2°46.283 12.1 316 15.8 101590 53
2009-08-03 07:11:53 51°16.066 2°46.259 11.9 32 15.8 101590 53
2009-08-03 07:11:58 51°16.071 2°46.235 11.6 315 15.8 101590 53
2009-08-03 07:12:03 51°16.077 2°46.211 11.7 315 15.8 101590 53
2009-08-03 07:12:08 51°16.083 2°46.188 11.2 316 15.8 101590 54
2009-08-03 07:12:13 51°16.089 2°46.165 11.2 33 15.8 101590 54
2009-08-03 07:12:18 51°16.095 2°46.142 10.7 26 15.8 101590 54
2009-08-03 07:12:23 51°16.101 2°46.119 11.2 34 15.8 101590 54
2009-08-03 07:12:28 51°16.108 2°46.096 9 27 15.8 101590 55
2009-08-03 07:12:33 51°16.115 2°46.073 9.3 37 15.8 101590 55
2009-08-03 07:12:38 51°16.122 2°46.05 9.5 27 15.8 101590 54
2009-08-03 07:12:43 51°16.128 2°46.028 12.1 35 15.8 101590 54
2009-08-03 07:12:48 51°16.135 2°46.005 9.8 27 15.8 101590 53
2009-08-03 07:12:53 51°16.142 2°45.982 10.1 37 15.8 101590 53
2009-08-03 07:12:59 51°16.15 2°45.955 11.7 23 15.8 101590 54
2009-08-03 07:13:03 51°16.156 2°45.937 11.7 32 15.8 101590 54
2009-08-03 07:13:08 51°16.163 2°45.915 11.2 24 15.9 101590 54
2009-08-03 07:13:13 51°16.17 2°45.892 11.5 31 15.9 101590 54
2009-08-03 07:13:18 51°16.177 2°45.87 10 25 15.8 101580 55
2009-08-03 07:13:23 51°16.184 2°45.848 10.6 34 15.8 101580 55
2009-08-03 07:13:28 51°16.192 2°45.825 9 20 15.8 101580 54
2009-08-03 07:13:33 51°16.199 2°45.803 10.9 37 15.8 101580 54
2009-08-03 07:13:38 51°16.206 2°45.781 10.4 24 15.9 101580 53
2009-08-03 07:13:43 51°16.213 2°45.759 8.8 34 15.9 101580 53
2009-08-03 07:13:48 51°16.221 2°45.736 10.6 27 15.8 101590 54
2009-08-03 07:13:53 51°16.228 2°45.714 10.5 38 15.8 101590 54
2009-08-03 07:13:58 51°16.235 2°45.691 11 27 15.8 101590 54
2009-08-03 07:14:03 51°16.242 2°45.669 11.3 40 15.8 101590 54
2009-08-03 07:14:07 51°16.248 2°45.651 9.4 28 15.8 101590 53
2009-08-03 07:14:13 51°16.256 2°45.624 9.3 37 15.8 101590 53
2009-08-03 07:14:18 51°16.263 2°45.602 9.4 26 15.9 101590 55
2009-08-03 07:14:23 51°16.27 2°45.579 11.4 33 15.9 101590 55
2009-08-03 07:14:27 51°16.276 2°45.561 8.9 23 15.9 101590 54
2009-08-03 07:14:33 51°16.284 2°45.535 9.9 38 15.9 101590 54
2009-08-03 07:14:38 51°16.291 2°45.512 11.4 23 15.9 101590 54
2009-08-03 07:14:43 51°16.298 2°45.49 10.4 36 15.9 101590 54
2009-08-03 07:14:47 51°16.303 2°45.471 10.9 26 15.9 101590 55
2009-08-03 07:14:53 51°16.311 2°45.444 9.4 33 15.9 101590 55
2009-08-03 07:14:58 51°16.318 2°45.422 10.9 22 15.9 101590 55
2009-08-03 07:15:03 51°16.325 2°45.399 11.3 315 15.9 101590 55
2009-08-03 07:15:08 51°16.331 2°45.376 11.3 21 15.9 101590 54
2009-08-03 07:15:13 51°16.338 2°45.353 11.7 37 15.9 101590 54
2009-08-03 07:15:18 51°16.345 2°45.331 12.5 22 15.9 101590 55
2009-08-03 07:15:23 51°16.351 2°45.308 9.6 36 15.9 101590 55
2009-08-03 07:15:28 51°16.358 2°45.285 11.4 25 15.9 101580 54
2009-08-03 07:15:33 51°16.364 2°45.262 9.5 39 15.9 101580 54
2009-08-03 07:15:38 51°16.371 2°45.239 9.6 24 15.9 101580 55
2009-08-03 07:15:43 51°16.377 2°45.216 11 316 15.9 101580 55
2009-08-03 07:15:48 51°16.383 2°45.193 9.5 26 15.9 101590 53
2009-08-03 07:15:53 51°16.389 2°45.17 9.5 316 15.9 101590 53
2009-08-03 07:15:58 51°16.395 2°45.147 11.1 316 15.9 101590 54
2009-08-03 07:16:03 51°16.402 2°45.125 11.1 316 15.9 101590 54
2009-08-03 07:16:08 51°16.408 2°45.102 9.9 21 15.9 101580 55
2009-08-03 07:16:14 51°16.416 2°45.074 10.8 36 15.9 101580 55
2009-08-03 07:16:18 51°16.421 2°45.056 9.4 28 15.9 101580 54
2009-08-03 07:16:23 51°16.427 2°45.033 9.2 38 15.9 101580 54
2009-08-03 07:16:28 51°16.434 2°45.01 11.2 24 15.9 101590 55
2009-08-03 07:16:34 51°16.442 2°44.983 9.3 34 15.9 101590 55
2009-08-03 07:16:38 51°16.447 2°44.965 11.6 23 15.9 101590 54
2009-08-03 07:16:43 51°16.454 2°44.942 11.2 35 15.9 101590 54
2009-08-03 07:16:48 51°16.461 2°44.919 9.2 26 15.9 101590 53
2009-08-03 07:16:54 51°16.469 2°44.892 9.2 37 15.9 101590 53
2009-08-03 07:16:58 51°16.474 2°44.874 11.6 21 15.9 101590 53
2009-08-03 07:17:03 51°16.481 2°44.851 10.4 33 15.9 101590 53
2009-08-03 07:17:08 51°16.487 2°44.828 11.1 24 15.9 101590 53
2009-08-03 07:17:13 51°16.494 2°44.805 9.9 35 15.9 101590 53
2009-08-03 07:17:19 51°16.502 2°44.778 9.5 25 15.9 101580 54
2009-08-03 07:17:23 51°16.507 2°44.759 12.8 34 15.9 101580 54
2009-08-03 07:17:28 51°16.514 2°44.736 12.5 27 15.9 101580 54
2009-08-03 07:17:33 51°16.521 2°44.713 9.6 39 15.9 101580 54
2009-08-03 07:17:38 51°16.527 2°44.69 9.7 28 15.9 101580 54
2009-08-03 07:17:43 51°16.534 2°44.667 11 36 15.9 101580 54
2009-08-03 07:17:48 51°16.54 2°44.644 9.7 21 15.9 101580 54
2009-08-03 07:17:53 51°16.547 2°44.621 11.3 32 15.9 101580 54
2009-08-03 07:17:58 51°16.554 2°44.598 9.2 24 15.9 101580 55
2009-08-03 07:18:03 51°16.56 2°44.574 10.1 34 15.9 101580 55
2009-08-03 07:18:08 51°16.567 2°44.551 9.6 23 15.9 101580 54
2009-08-03 07:18:13 51°16.573 2°44.528 10.6 37 15.9 101580 54
2009-08-03 07:18:18 51°16.58 2°44.505 10 24 15.9 101580 54
2009-08-03 07:18:23 51°16.587 2°44.482 9.7 35 15.9 101580 54
2009-08-03 07:18:28 51°16.593 2°44.459 11 23 15.9 101580 55
2009-08-03 07:18:34 51°16.601 2°44.432 10.9 37 15.9 101580 55
2009-08-03 07:18:38 51°16.606 2°44.413 10.7 25 15.9 101580 54
2009-08-03 07:18:43 51°16.613 2°44.39 11.4 33 15.9 101580 54
2009-08-03 07:18:48 51°16.619 2°44.367 11.7 21 15.9 101580 55
2009-08-03 07:18:53 51°16.626 2°44.344 11.4 30 15.9 101580 55
2009-08-03 07:18:58 51°16.632 2°44.32 11.6 19 15.9 101580 55
2009-08-03 07:19:03 51°16.639 2°44.297 9.4 38 15.9 101580 55
2009-08-03 07:19:08 51°16.645 2°44.274 9.6 25 16 101590 54
2009-08-03 07:19:13 51°16.651 2°44.25 11.3 38 16 101590 54
2009-08-03 07:19:18 51°16.658 2°44.227 9.1 29 16 101580 55
2009-08-03 07:19:23 51°16.665 2°44.204 11 36 16 101580 55
2009-08-03 07:19:27 51°16.67 2°44.185 11.1 28 16 101590 54
2009-08-03 07:19:33 51°16.678 2°44.157 10.8 38 16 101590 54
2009-08-03 07:19:38 51°16.684 2°44.134 10.9 27 16 101580 55
2009-08-03 07:19:43 51°16.69 2°44.111 11.4 38 16 101580 55
2009-08-03 07:19:47 51°16.696 2°44.092 11.5 28 16 101580 54
2009-08-03 07:19:53 51°16.703 2°44.064 12 33 16 101580 54
2009-08-03 07:19:58 51°16.71 2°44.041 10.5 316 16 101590 53
2009-08-03 07:20:03 51°16.716 2°44.017 12.2 38 16 101590 53
2009-08-03 07:20:08 51°16.723 2°43.994 10.6 24 16 101580 55
2009-08-03 07:20:14 51°16.731 2°43.966 10.5 315 16 101580 55
2009-08-03 07:20:18 51°16.736 2°43.947 10.4 24 16 101580 55
2009-08-03 07:20:23 51°16.742 2°43.924 12.2 315 16 101580 55
2009-08-03 07:20:28 51°16.748 2°43.901 11.9 23 16 101580 55
2009-08-03 07:20:34 51°16.756 2°43.873 12.1 38 16 101580 55
2009-08-03 07:20:38 51°16.761 2°43.854 10.2 28 16 101580 54
2009-08-03 07:20:43 51°16.767 2°43.83 11 316 16 101580 54
2009-08-03 07:20:48 51°16.774 2°43.807 9.2 316 16 101580 53
2009-08-03 07:20:54 51°16.781 2°43.779 10.3 316 16 101580 53
2009-08-03 07:20:58 51°16.786 2°43.76 12.1 315 15.9 101580 54
2009-08-03 07:21:03 51°16.792 2°43.736 11.5 316 15.9 101580 54
2009-08-03 07:21:08 51°16.797 2°43.712 9.9 316 16 101580 53
2009-08-03 07:21:14 51°16.805 2°43.684 11.7 36 16 101580 53
2009-08-03 07:21:18 51°16.81 2°43.665 11.8 22 16 101580 54
2009-08-03 07:21:23 51°16.817 2°43.642 12.4 38 16 101580 54
2009-08-03 07:21:28 51°16.823 2°43.619 9.6 27 16 101590 54
2009-08-03 07:21:34 51°16.831 2°43.592 9.5 33 16 101590 54
2009-08-03 07:21:39 51°16.838 2°43.569 9.3 20 16 101590 53
2009-08-03 07:21:43 51°16.844 2°43.551 9.9 36 16 101590 53
2009-08-03 07:21:48 51°16.851 2°43.528 9.3 27 16 101580 54
2009-08-03 07:21:53 51°16.859 2°43.506 12.2 40 16 101580 54
2009-08-03 07:21:59 51°16.867 2°43.479 12.5 24 16 101580 55
2009-08-03 07:22:03 51°16.873 2°43.461 12.6 35 16 101580 55
2009-08-03 07:22:08 51°16.881 2°43.438 10.4 27 16 101580 54
2009-08-03 07:22:13 51°16.889 2°43.416 10.1 32 16 101580 54
2009-08-03 07:22:18 51°16.896 2°43.394 12.2 19 16.1 101580 55
2009-08-03 07:22:23 51°16.904 2°43.372 10.8 37 16.1 101580 55
2009-08-03 07:22:28 51°16.912 2°43.35 11.4 24 16.1 101580 53
2009-08-03 07:22:33 51°16.92 2°43.328 9.2 32 16.1 101580 53
2009-08-03 07:22:38 51°16.928 2°43.306 10.7 23 16 101580 55
2009-08-03 07:22:43 51°16.936 2°43.284 11.2 38 16 101580 55
2009-08-03 07:22:48 51°16.944 2°43.262 9.3 28 16 101580 53
2009-08-03 07:22:53 51°16.952 2°43.239 11.1 34 16 101580 53
2009-08-03 07:22:58 51°16.959 2°43.217 10 25 16 101580 54
2009-08-03 07:23:03 51°16.967 2°43.195 9.5 38 16 101580 54
2009-08-03 07:23:08 51°16.975 2°43.173 11 24 16 101580 53
2009-08-03 07:23:14 51°16.984 2°43.146 9.6 36 16 101580 53
2009-08-03 07:23:18 51°16.991 2°43.128 9.5 25 16 101580 53
2009-08-03 07:23:23 51°16.999 2°43.106 9.5 315 16 101580 53
2009-08-03 07:23:28 51°17.007 2°43.084 9.6 26 16 101580 54
2009-08-03 07:23:34 51°17.017 2°43.057 10.8 36 16 101580 54
2009-08-03 07:23:38 51°17.023 2°43.039 9.5 24 16 101590 54
2009-08-03 07:23:43 51°17.031 2°43.017 9.6 31 16 101590 54
2009-08-03 07:23:48 51°17.039 2°42.995 11 19 16 101590 53
2009-08-03 07:23:54 51°17.049 2°42.969 10 35 16 101590 53
2009-08-03 07:23:58 51°17.055 2°42.951 9.9 25 16 101580 54
2009-08-03 07:24:03 51°17.063 2°42.929 9.4 31 16 101580 54
2009-08-03 07:24:08 51°17.071 2°42.906 10.7 23 16.1 101580 55
2009-08-03 07:24:13 51°17.079 2°42.885 10.1 37 16.1 101580 55
2009-08-03 07:24:18 51°17.087 2°42.863 11.4 22 16.1 101580 54
2009-08-03 07:24:23 51°17.095 2°42.84 11.2 40 16.1 101580 54
2009-08-03 07:24:28 51°17.103 2°42.819 10.1 28 16.1 101580 54
2009-08-03 07:24:33 51°17.111 2°42.797 11.6 37 16.1 101580 54
2009-08-03 07:24:38 51°17.119 2°42.775 11.5 26 16.1 101580 54
2009-08-03 07:24:43 51°17.127 2°42.753 9.4 35 16.1 101580 54
2009-08-03 07:24:47 51°17.133 2°42.735 8.9 21 16.1 101580 55
2009-08-03 07:24:53 51°17.143 2°42.709 9.1 34 16.1 101580 55
2009-08-03 07:24:58 51°17.151 2°42.686 9.3 20 16.1 101580 54
2009-08-03 07:25:03 51°17.159 2°42.663 9.1 38 16.1 101580 54
2009-08-03 07:25:07 51°17.165 2°42.646 8.9 23 16.1 101580 53
2009-08-03 07:25:13 51°17.175 2°42.619 9 37 16.1 101580 53
2009-08-03 07:25:18 51°17.183 2°42.597 8.9 28 16.1 101590 53
2009-08-03 07:25:23 51°17.191 2°42.575 10.6 38 16.1 101590 53
2009-08-03 07:25:27 51°17.197 2°42.557 8.8 27 16.1 101580 53
2009-08-03 07:25:33 51°17.207 2°42.53 10.4 38 16.1 101580 53
2009-08-03 07:25:38 51°17.215 2°42.508 11 23 16.1 101580 53
2009-08-03 07:25:43 51°17.223 2°42.485 11 315 16.1 101580 53
2009-08-03 07:25:48 51°17.231 2°42.462 11.4 21 16.1 101580 55
2009-08-03 07:25:54 51°17.24 2°42.435 10 40 16.1 101580 55
2009-08-03 07:25:58 51°17.247 2°42.417 9.9 27 16.1 101580 54
2009-08-03 07:26:03 51°17.254 2°42.395 10.3 39 16.1 101580 54
2009-08-03 07:26:08 51°17.262 2°42.372 12.4 316 16.1 101580 54
2009-08-03 07:26:14 51°17.272 2°42.346 10.2 317 16.1 101580 54
2009-08-03 07:26:18 51°17.279 2°42.328 11.6 316 16.1 101580 54
2009-08-03 07:26:23 51°17.287 2°42.305 11.2 317 16.1 101580 54
2009-08-03 07:26:28 51°17.295 2°42.283 11.3 317 16.2 101580 54
2009-08-03 07:26:34 51°17.304 2°42.256 12.1 316 16.2 101580 54
2009-08-03 07:26:38 51°17.31 2°42.238 10.2 317 16.2 101580 54
2009-08-03 07:26:43 51°17.318 2°42.215 11.7 316 16.2 101580 54
2009-08-03 07:26:48 51°17.326 2°42.192 11.6 316 16.1 101580 54
2009-08-03 07:26:53 51°17.334 2°42.17 9.7 317 16.1 101580 54
2009-08-03 07:26:58 51°17.342 2°42.148 11.4 23 16.1 101580 53
2009-08-03 07:27:03 51°17.35 2°42.126 9.4 316 16.1 101580 53
2009-08-03 07:27:08 51°17.358 2°42.103 11.1 20 16.1 101580 54
2009-08-03 07:27:13 51°17.366 2°42.081 9 317 16.1 101580 54
2009-08-03 07:27:18 51°17.374 2°42.059 9.1 317 16.1 101580 52
2009-08-03 07:27:23 51°17.382 2°42.036 11.3 317 16.1 101580 52
2009-08-03 07:27:28 51°17.389 2°42.013 9.3 317 16.1 101580 52
2009-08-03 07:27:34 51°17.397 2°41.985 9.6 40 16.1 101580 52
2009-08-03 07:27:38 51°17.403 2°41.967 11.4 24 16.1 101590 54
2009-08-03 07:27:43 51°17.409 2°41.943 9.7 36 16.1 101590 54
2009-08-03 07:27:48 51°17.416 2°41.919 11.1 316 16.1 101580 53
2009-08-03 07:27:54 51°17.423 2°41.891 10.5 315 16.1 101580 53
2009-08-03 07:27:58 51°17.428 2°41.872 10.4 316 16.1 101580 54
2009-08-03 07:28:03 51°17.434 2°41.848 8.9 316 16.1 101580 54
2009-08-03 07:28:08 51°17.44 2°41.824 10.6 318 16.1 101580 54
2009-08-03 07:28:14 51°17.448 2°41.795 10.5 316 16.1 101580 54
2009-08-03 07:28:18 51°17.452 2°41.775 10.3 315 16.2 101580 54
2009-08-03 07:28:23 51°17.458 2°41.751 12 318 16.2 101580 54
2009-08-03 07:28:28 51°17.463 2°41.726 10.5 316 16.2 101580 54
2009-08-03 07:28:33 51°17.468 2°41.702 11.8 317 16.2 101580 54
2009-08-03 07:28:38 51°17.472 2°41.677 11.3 317 16.2 101590 55
2009-08-03 07:28:43 51°17.477 2°41.652 11.4 317 16.2 101590 55
2009-08-03 07:28:48 51°17.481 2°41.627 11 319 16.3 101590 54
2009-08-03 07:28:53 51°17.485 2°41.602 10.3 318 16.3 101590 54
2009-08-03 07:28:58 51°17.489 2°41.577 12.3 317 16.3 101580 54
2009-08-03 07:29:03 51°17.493 2°41.551 11.2 322 16.3 101580 54
2009-08-03 07:29:08 51°17.497 2°41.526 10.1 320 16.2 101580 54
2009-08-03 07:29:13 51°17.5 2°41.5 12 322 16.2 101580 54
2009-08-03 07:29:18 51°17.504 2°41.475 10.2 322 16.3 101590 53
2009-08-03 07:29:23 51°17.508 2°41.45 11.2 321 16.3 101590 53
2009-08-03 07:29:28 51°17.512 2°41.424 10 322 16.3 101580 53
2009-08-03 07:29:33 51°17.516 2°41.399 12 321 16.3 101580 53
2009-08-03 07:29:38 51°17.519 2°41.373 9.8 321 16.3 101580 54
2009-08-03 07:29:43 51°17.523 2°41.348 9.6 318 16.3 101580 54
2009-08-03 07:29:48 51°17.527 2°41.323 9.5 317 16.3 101590 54
2009-08-03 07:29:53 51°17.531 2°41.297 10.1 320 16.3 101590 54
2009-08-03 07:29:58 51°17.535 2°41.272 11.8 319 16.3 101590 53
2009-08-03 07:30:03 51°17.539 2°41.247 11.1 321 16.3 101590 53
2009-08-03 07:30:08 51°17.543 2°41.221 11.9 321 16.3 101580 54
2009-08-03 07:30:13 51°17.547 2°41.196 11 319 16.3 101580 54
2009-08-03 07:30:18 51°17.551 2°41.171 11.4 319 16.3 101580 54
2009-08-03 07:30:23 51°17.555 2°41.145 12 319 16.3 101580 54
2009-08-03 07:30:27 51°17.558 2°41.125 11.1 319 16.3 101580 54
2009-08-03 07:30:33 51°17.562 2°41.094 12.6 319 16.3 101580 54
2009-08-03 07:30:38 51°17.566 2°41.069 12.4 319 16.3 101590 52
2009-08-03 07:30:43 51°17.569 2°41.044 11.1 317 16.3 101590 52
2009-08-03 07:30:47 51°17.573 2°41.024 13.2 315 16.3 101580 53
2009-08-03 07:30:53 51°17.577 2°40.993 10.2 317 16.3 101580 53
2009-08-03 07:30:58 51°17.581 2°40.968 12 20 16.3 101590 53
2009-08-03 07:31:03 51°17.585 2°40.942 10.3 316 16.3 101590 53
2009-08-03 07:31:07 51°17.588 2°40.922 12.3 316 16.3 101580 54
2009-08-03 07:31:13 51°17.592 2°40.891 11.3 32 16.3 101580 54
2009-08-03 07:31:18 51°17.596 2°40.866 11.1 19 16.3 101580 54
2009-08-03 07:31:23 51°17.6 2°40.841 9.8 316 16.3 101580 54
2009-08-03 07:31:28 51°17.604 2°40.815 11.8 318 16.4 101580 53
2009-08-03 07:31:34 51°17.609 2°40.785 12.4 317 16.4 101580 53
2009-08-03 07:31:38 51°17.612 2°40.765 9.4 317 16.3 101580 54
2009-08-03 07:31:43 51°17.616 2°40.74 10 318 16.3 101580 54
2009-08-03 07:31:48 51°17.62 2°40.714 11.9 316 16.3 101580 53
2009-08-03 07:31:54 51°17.624 2°40.684 12.3 318 16.3 101580 53
2009-08-03 07:31:58 51°17.627 2°40.664 12 317 16.3 101580 54
2009-08-03 07:32:03 51°17.631 2°40.638 14.1 316 16.3 101580 54
2009-08-03 07:32:08 51°17.635 2°40.613 11.3 316 16.4 101580 53
2009-08-03 07:32:14 51°17.64 2°40.583 13.1 38 16.4 101580 53
2009-08-03 07:32:18 51°17.643 2°40.562 13 28 16.4 101580 53
2009-08-03 07:32:23 51°17.647 2°40.537 10.5 317 16.4 101580 53
2009-08-03 07:32:28 51°17.651 2°40.512 12.3 318 16.4 101580 53
2009-08-03 07:32:34 51°17.655 2°40.482 12.1 318 16.4 101580 53
2009-08-03 07:32:38 51°17.658 2°40.461 12.3 318 16.4 101580 54
2009-08-03 07:32:43 51°17.662 2°40.436 11.9 317 16.4 101580 54
2009-08-03 07:32:48 51°17.666 2°40.411 12.5 317 16.4 101570 54
2009-08-03 07:32:54 51°17.671 2°40.381 12.5 34 16.4 101570 54
2009-08-03 07:32:59 51°17.676 2°40.356 12.1 317 16.4 101580 52
2009-08-03 07:33:03 51°17.679 2°40.335 10.3 316 16.4 101580 52
2009-08-03 07:33:08 51°17.683 2°40.31 12.2 316 16.4 101580 52
2009-08-03 07:33:13 51°17.687 2°40.285 12.8 317 16.4 101580 52
2009-08-03 07:33:19 51°17.692 2°40.255 11.3 23 16.4 101580 54
2009-08-03 07:33:23 51°17.696 2°40.235 10.7 37 16.4 101580 54
2009-08-03 07:33:28 51°17.7 2°40.21 10.6 24 16.4 101580 53
2009-08-03 07:33:33 51°17.704 2°40.185 10.2 39 16.4 101580 53
2009-08-03 07:33:38 51°17.709 2°40.16 13.1 316 16.4 101580 54
2009-08-03 07:33:43 51°17.713 2°40.135 11.6 317 16.4 101580 54
2009-08-03 07:33:48 51°17.718 2°40.11 12.4 316 16.4 101580 54
2009-08-03 07:33:53 51°17.722 2°40.085 9.6 317 16.4 101580 54
2009-08-03 07:33:58 51°17.726 2°40.06 9.3 318 16.4 101580 53
2009-08-03 07:34:03 51°17.731 2°40.035 11.3 316 16.4 101580 53
2009-08-03 07:34:08 51°17.735 2°40.01 11.7 316 16.4 101570 52
2009-08-03 07:34:13 51°17.739 2°39.984 12.2 316 16.4 101570 52
2009-08-03 07:34:18 51°17.744 2°39.959 9.7 316 16.4 101580 52
2009-08-03 07:34:23 51°17.748 2°39.934 10.8 317 16.4 101580 52
2009-08-03 07:34:28 51°17.752 2°39.909 9.5 316 16.4 101580 53
2009-08-03 07:34:34 51°17.758 2°39.879 11.1 316 16.4 101580 53
2009-08-03 07:34:38 51°17.761 2°39.859 13.5 318 16.4 101580 54
2009-08-03 07:34:43 51°17.766 2°39.834 10.5 316 16.4 101580 54
2009-08-03 07:34:48 51°17.77 2°39.809 10 317 16.5 101590 54
2009-08-03 07:34:53 51°17.775 2°39.784 12.1 315 16.5 101590 54
2009-08-03 07:34:58 51°17.779 2°39.758 12.5 316 16.4 101580 54
2009-08-03 07:35:03 51°17.783 2°39.733 10.5 316 16.4 101580 54
2009-08-03 07:35:07 51°17.786 2°39.713 12.5 316 16.4 101580 52
2009-08-03 07:35:13 51°17.791 2°39.683 11.9 317 16.4 101580 52
2009-08-03 07:35:18 51°17.796 2°39.658 12.3 316 16.4 101580 53
2009-08-03 07:35:23 51°17.8 2°39.633 12.2 316 16.4 101580 53
2009-08-03 07:35:27 51°17.804 2°39.613 10.2 318 16.4 101590 53
2009-08-03 07:35:33 51°17.809 2°39.584 11.8 315 16.4 101590 53
2009-08-03 07:35:38 51°17.814 2°39.559 12.4 317 16.4 101580 53
2009-08-03 07:35:43 51°17.819 2°39.534 11.4 318 16.4 101580 53
2009-08-03 07:35:47 51°17.822 2°39.514 13.6 318 16.4 101580 53
2009-08-03 07:35:53 51°17.828 2°39.484 13 317 16.4 101580 53
2009-08-03 07:35:58 51°17.833 2°39.459 13.2 317 16.5 101580 53
2009-08-03 07:36:03 51°17.838 2°39.435 11 316 16.5 101580 53
2009-08-03 07:36:08 51°17.842 2°39.41 12.7 316 16.5 101580 54
2009-08-03 07:36:14 51°17.848 2°39.38 10.2 316 16.5 101580 54
2009-08-03 07:36:18 51°17.851 2°39.36 12.4 316 16.5 101580 54
2009-08-03 07:36:23 51°17.856 2°39.336 12.2 315 16.5 101580 54
2009-08-03 07:36:28 51°17.861 2°39.311 11.7 317 16.4 101570 54
2009-08-03 07:36:34 51°17.866 2°39.281 12.1 40 16.4 101570 54
2009-08-03 07:36:38 51°17.87 2°39.261 12 28 16.4 101580 54
2009-08-03 07:36:43 51°17.875 2°39.237 10.2 33 16.4 101580 54
2009-08-03 07:36:48 51°17.879 2°39.212 10 23 16.4 101580 52
2009-08-03 07:36:54 51°17.885 2°39.182 11.1 37 16.4 101580 52
2009-08-03 07:36:58 51°17.888 2°39.162 10.4 26 16.4 101580 53
2009-08-03 07:37:03 51°17.893 2°39.137 12.3 40 16.4 101580 53
2009-08-03 07:37:08 51°17.897 2°39.112 12.8 30 16.4 101580 52
2009-08-03 07:37:14 51°17.903 2°39.082 12.4 37 16.4 101580 52
2009-08-03 07:37:18 51°17.907 2°39.062 10.5 23 16.4 101590 53
2009-08-03 07:37:23 51°17.911 2°39.038 11.5 33 16.4 101590 53
2009-08-03 07:37:28 51°17.916 2°39.013 11.5 26 16.4 101580 54
2009-08-03 07:37:34 51°17.922 2°38.983 13.4 35 16.4 101580 54
2009-08-03 07:37:39 51°17.926 2°38.958 12 24 16.4 101570 54
2009-08-03 07:37:43 51°17.93 2°38.939 10.7 37 16.4 101570 54
2009-08-03 07:37:48 51°17.935 2°38.914 10.5 26 16.4 101580 53
2009-08-03 07:37:53 51°17.939 2°38.889 10.5 37 16.4 101580 53
2009-08-03 07:37:59 51°17.944 2°38.859 12.7 24 16.4 101580 54
2009-08-03 07:38:03 51°17.948 2°38.839 12.1 41 16.4 101580 54
2009-08-03 07:38:08 51°17.952 2°38.814 12 27 16.4 101580 54
2009-08-03 07:38:13 51°17.957 2°38.789 11.6 35 16.4 101580 54
2009-08-03 07:38:18 51°17.961 2°38.765 11.9 24 16.3 101580 52
2009-08-03 07:38:23 51°17.965 2°38.739 12.2 39 16.3 101580 52
2009-08-03 07:38:28 51°17.97 2°38.715 10.2 26 16.3 101580 54
2009-08-03 07:38:33 51°17.974 2°38.69 10.5 317 16.3 101580 54
2009-08-03 07:38:38 51°17.979 2°38.665 10.5 318 16.3 101580 54
2009-08-03 07:38:43 51°17.983 2°38.64 13.1 317 16.3 101580 54
2009-08-03 07:38:48 51°17.988 2°38.615 10.5 316 16.3 101580 54
2009-08-03 07:38:53 51°17.992 2°38.591 12.5 316 16.3 101580 54
2009-08-03 07:38:58 51°17.997 2°38.566 10.9 27 16.3 101580 53
2009-08-03 07:39:03 51°18.001 2°38.541 10.4 316 16.3 101580 53
2009-08-03 07:39:07 51°18.004 2°38.521 12.4 317 16.3 101580 54
2009-08-03 07:39:13 51°18.009 2°38.491 12.4 316 16.3 101580 54
2009-08-03 07:39:18 51°18.014 2°38.466 12.5 317 16.3 101580 53
2009-08-03 07:39:23 51°18.018 2°38.441 10.9 316 16.3 101580 53
2009-08-03 07:39:28 51°18.022 2°38.416 12.7 29 16.3 101580 53
2009-08-03 07:39:34 51°18.027 2°38.387 12.2 31 16.3 101580 53
2009-08-03 07:39:38 51°18.031 2°38.367 11.9 23 16.3 101580 53
2009-08-03 07:39:43 51°18.035 2°38.342 12.4 31 16.3 101580 53
2009-08-03 07:39:48 51°18.039 2°38.316 10.8 22 16.3 101580 53
2009-08-03 07:39:53 51°18.044 2°38.292 10.4 38 16.3 101580 53
2009-08-03 07:39:58 51°18.048 2°38.266 10.1 26 16.2 101580 54
2009-08-03 07:40:03 51°18.052 2°38.241 13.1 315 16.2 101580 54
2009-08-03 07:40:08 51°18.056 2°38.216 10.2 28 16.2 101580 53
2009-08-03 07:40:13 51°18.06 2°38.191 12.8 34 16.2 101580 53
2009-08-03 07:40:18 51°18.064 2°38.166 11.9 22 16.3 101580 54
2009-08-03 07:40:23 51°18.069 2°38.142 12.9 36 16.3 101580 54
2009-08-03 07:40:28 51°18.073 2°38.116 11 26 16.3 101580 54
2009-08-03 07:40:34 51°18.078 2°38.087 10.4 34 16.3 101580 54
2009-08-03 07:40:38 51°18.081 2°38.067 10.4 27 16.3 101590 54
2009-08-03 07:40:43 51°18.085 2°38.042 13.4 38 16.3 101590 54
2009-08-03 07:40:48 51°18.089 2°38.016 13.1 28 16.3 101580 54
2009-08-03 07:40:53 51°18.093 2°37.991 12 315 16.3 101580 54
2009-08-03 07:40:58 51°18.097 2°37.966 12 26 16.3 101580 53
2009-08-03 07:41:03 51°18.1 2°37.941 10.4 37 16.3 101580 53
2009-08-03 07:41:08 51°18.104 2°37.915 12.3 316 16.3 101580 53
2009-08-03 07:41:13 51°18.106 2°37.89 10.1 315 16.3 101580 53
2009-08-03 07:41:18 51°18.109 2°37.864 10.4 316 16.2 101580 53
2009-08-03 07:41:23 51°18.11 2°37.838 12.6 316 16.2 101580 53
2009-08-03 07:41:28 51°18.113 2°37.812 10.4 317 16.3 101580 53
2009-08-03 07:41:34 51°18.114 2°37.78 13.4 315 16.3 101580 53
2009-08-03 07:41:38 51°18.115 2°37.76 10.6 316 16.3 101590 53
2009-08-03 07:41:43 51°18.117 2°37.733 13.2 319 16.3 101590 53
2009-08-03 07:41:48 51°18.118 2°37.707 12.3 321 16.3 101580 54
2009-08-03 07:41:53 51°18.12 2°37.681 11.1 319 16.3 101580 54
2009-08-03 07:41:59 51°18.122 2°37.649 13.4 319 16.3 101580 54
2009-08-03 07:42:03 51°18.123 2°37.629 10.5 319 16.3 101580 54
2009-08-03 07:42:08 51°18.124 2°37.602 12.5 318 16.3 101590 53
2009-08-03 07:42:13 51°18.126 2°37.576 13.3 316 16.3 101590 53
2009-08-03 07:42:18 51°18.127 2°37.55 11.1 315 16.3 101590 53
2009-08-03 07:42:23 51°18.129 2°37.524 12.3 319 16.3 101590 53
2009-08-03 07:42:28 51°18.13 2°37.498 12.4 318 16.3 101580 53
2009-08-03 07:42:34 51°18.132 2°37.466 10.1 317 16.3 101580 53
2009-08-03 07:42:38 51°18.133 2°37.445 12.5 316 16.2 101590 54
2009-08-03 07:42:43 51°18.134 2°37.419 10.7 317 16.2 101590 54
2009-08-03 07:42:48 51°18.136 2°37.393 12.4 318 16.3 101590 54
2009-08-03 07:42:53 51°18.137 2°37.367 10.5 316 16.3 101590 54
2009-08-03 07:42:58 51°18.138 2°37.341 10.3 317 16.3 101590 54
2009-08-03 07:43:03 51°18.139 2°37.314 10.9 317 16.3 101590 54
2009-08-03 07:43:08 51°18.14 2°37.288 10.3 317 16.3 101580 54
2009-08-03 07:43:13 51°18.141 2°37.262 10.5 317 16.3 101580 54
2009-08-03 07:43:18 51°18.142 2°37.236 11 317 16.3 101580 54
2009-08-03 07:43:23 51°18.144 2°37.21 9.7 320 16.3 101580 54
2009-08-03 07:43:27 51°18.145 2°37.189 11.7 318 16.3 101580 54
2009-08-03 07:43:33 51°18.146 2°37.158 11.8 320 16.3 101580 54
2009-08-03 07:43:38 51°18.147 2°37.132 11.7 319 16.3 101590 53
2009-08-03 07:43:43 51°18.149 2°37.106 10.2 320 16.3 101590 53
2009-08-03 07:43:47 51°18.15 2°37.085 10.2 320 16.3 101590 54
2009-08-03 07:43:53 51°18.152 2°37.054 12.3 320 16.3 101590 54
2009-08-03 07:43:58 51°18.153 2°37.028 12.3 320 16.4 101590 54
2009-08-03 07:44:03 51°18.154 2°37.002 10.1 319 16.4 101590 54
2009-08-03 07:44:07 51°18.155 2°36.981 10.3 320 16.3 101590 54
2009-08-03 07:44:13 51°18.156 2°36.949 12.7 318 16.3 101590 54
2009-08-03 07:44:18 51°18.158 2°36.923 12.8 319 16.3 101590 54
2009-08-03 07:44:23 51°18.16 2°36.897 10.1 317 16.3 101590 54
2009-08-03 07:44:28 51°18.161 2°36.871 12.5 319 16.3 101590 54
2009-08-03 07:44:34 51°18.164 2°36.84 10.4 318 16.3 101590 54
2009-08-03 07:44:38 51°18.165 2°36.82 10 316 16.3 101580 53
2009-08-03 07:44:43 51°18.167 2°36.794 11.7 320 16.3 101580 53
2009-08-03 07:44:48 51°18.169 2°36.768 13.3 321 16.3 101590 53
2009-08-03 07:44:53 51°18.17 2°36.742 12.2 321 16.3 101590 53
2009-08-03 07:44:58 51°18.172 2°36.716 12.7 321 16.3 101590 53
2009-08-03 07:45:03 51°18.174 2°36.69 10.1 320 16.3 101590 53
2009-08-03 07:45:08 51°18.175 2°36.664 13 319 16.3 101590 53
2009-08-03 07:45:14 51°18.177 2°36.633 11.8 320 16.3 101590 53
2009-08-03 07:45:18 51°18.178 2°36.612 9.6 321 16.3 101590 53
2009-08-03 07:45:23 51°18.18 2°36.586 12.3 318 16.3 101590 53
2009-08-03 07:45:28 51°18.181 2°36.56 10.4 319 16.3 101590 54
2009-08-03 07:45:34 51°18.184 2°36.529 11.8 319 16.3 101590 54
2009-08-03 07:45:38 51°18.185 2°36.508 12.2 321 16.3 101590 54
2009-08-03 07:45:43 51°18.187 2°36.483 10.7 320 16.3 101590 54
2009-08-03 07:45:48 51°18.188 2°36.457 13.2 319 16.3 101590 54
2009-08-03 07:45:53 51°18.19 2°36.431 9.7 317 16.3 101590 54
2009-08-03 07:45:58 51°18.192 2°36.405 10.2 317 16.3 101590 54
2009-08-03 07:46:03 51°18.194 2°36.379 12.8 318 16.3 101590 54
2009-08-03 07:46:08 51°18.196 2°36.354 10.8 319 16.3 101590 54
2009-08-03 07:46:14 51°18.198 2°36.322 9.9 319 16.3 101590 54
2009-08-03 07:46:19 51°18.2 2°36.297 12.4 318 16.3 101590 53
2009-08-03 07:46:23 51°18.202 2°36.276 12 320 16.3 101590 53
2009-08-03 07:46:28 51°18.204 2°36.25 9.6 29 16.3 101590 53
2009-08-03 07:46:33 51°18.207 2°36.224 12.5 317 16.3 101590 53
2009-08-03 07:46:38 51°18.209 2°36.199 10 317 16.4 101580 54
2009-08-03 07:46:43 51°18.212 2°36.172 12.6 320 16.4 101580 54
2009-08-03 07:46:48 51°18.214 2°36.146 10.5 319 16.4 101590 54
2009-08-03 07:46:53 51°18.216 2°36.12 13.1 319 16.4 101590 54
2009-08-03 07:46:59 51°18.219 2°36.09 12.4 318 16.4 101590 53
2009-08-03 07:47:03 51°18.22 2°36.069 12 321 16.4 101590 53
2009-08-03 07:47:08 51°18.222 2°36.043 9.8 320 16.4 101590 53
2009-08-03 07:47:13 51°18.224 2°36.017 9.7 320 16.4 101590 53
2009-08-03 07:47:18 51°18.226 2°35.991 9.7 319 16.4 101590 53
2009-08-03 07:47:23 51°18.228 2°35.965 12 319 16.4 101590 53
2009-08-03 07:47:28 51°18.23 2°35.939 10 320 16.3 101590 52
2009-08-03 07:47:34 51°18.233 2°35.908 11.7 318 16.3 101590 52
2009-08-03 07:47:38 51°18.234 2°35.887 11.2 318 16.3 101590 53
2009-08-03 07:47:43 51°18.237 2°35.861 9.3 319 16.3 101590 53
2009-08-03 07:47:48 51°18.239 2°35.835 11.5 321 16.3 101590 54
2009-08-03 07:47:53 51°18.241 2°35.809 12 320 16.3 101590 54
2009-08-03 07:47:58 51°18.243 2°35.783 11.9 319 16.3 101590 52
2009-08-03 07:48:03 51°18.245 2°35.757 10.6 319 16.3 101590 52
2009-08-03 07:48:08 51°18.247 2°35.731 12.7 319 16.3 101590 54
2009-08-03 07:48:13 51°18.249 2°35.705 9.8 322 16.3 101590 54
2009-08-03 07:48:18 51°18.251 2°35.679 11.9 321 16.3 101590 54
2009-08-03 07:48:23 51°18.253 2°35.653 10 319 16.3 101590 54
2009-08-03 07:48:28 51°18.256 2°35.627 11.9 320 16.3 101590 54
2009-08-03 07:48:33 51°18.258 2°35.601 10 319 16.3 101590 54
2009-08-03 07:48:38 51°18.26 2°35.575 13.1 319 16.3 101590 54
2009-08-03 07:48:43 51°18.262 2°35.549 10.3 324 16.3 101590 54
2009-08-03 07:48:47 51°18.264 2°35.528 11.1 323 16.4 101590 54
2009-08-03 07:48:53 51°18.266 2°35.497 13.6 321 16.4 101590 54
2009-08-03 07:48:58 51°18.268 2°35.471 11.6 320 16.3 101590 54
2009-08-03 07:49:03 51°18.27 2°35.445 11.1 320 16.3 101590 54
2009-08-03 07:49:07 51°18.272 2°35.424 10.9 320 16.4 101590 54
2009-08-03 07:49:13 51°18.275 2°35.393 11.7 321 16.4 101590 54
2009-08-03 07:49:18 51°18.277 2°35.367 12.2 322 16.3 101590 53
2009-08-03 07:49:23 51°18.279 2°35.341 12.4 320 16.3 101590 53
2009-08-03 07:49:27 51°18.281 2°35.32 12.7 320 16.2 101580 52
2009-08-03 07:49:33 51°18.284 2°35.289 12.6 319 16.2 101580 52
2009-08-03 07:49:38 51°18.286 2°35.263 11.9 320 16.2 101590 51
2009-08-03 07:49:43 51°18.288 2°35.237 11.5 322 16.2 101590 51
2009-08-03 07:49:48 51°18.291 2°35.211 12 323 16.2 101590 53
2009-08-03 07:49:54 51°18.293 2°35.181 12.9 323 16.2 101590 53
2009-08-03 07:49:58 51°18.295 2°35.16 12.5 323 16.1 101590 52
2009-08-03 07:50:03 51°18.297 2°35.134 11.1 322 16.1 101590 52
2009-08-03 07:50:08 51°18.3 2°35.108 12.9 323 16.2 101590 51
2009-08-03 07:50:14 51°18.302 2°35.077 11.6 321 16.2 101590 51
2009-08-03 07:50:18 51°18.304 2°35.056 12.2 322 16.2 101590 51
2009-08-03 07:50:23 51°18.306 2°35.03 12.7 321 16.2 101590 51
2009-08-03 07:50:28 51°18.309 2°35.004 11.3 321 16.2 101590 52
2009-08-03 07:50:34 51°18.311 2°34.973 12.7 319 16.2 101590 52
2009-08-03 07:50:38 51°18.313 2°34.952 12.7 318 16.3 101590 52
2009-08-03 07:50:43 51°18.316 2°34.926 12.8 317 16.3 101590 52
2009-08-03 07:50:48 51°18.318 2°34.9 13.8 319 16.3 101580 53
2009-08-03 07:50:54 51°18.321 2°34.869 11.5 317 16.3 101580 53
2009-08-03 07:50:59 51°18.323 2°34.843 11.9 316 16.4 101590 53
2009-08-03 07:51:03 51°18.325 2°34.822 11.6 317 16.4 101590 53
2009-08-03 07:51:08 51°18.327 2°34.796 14.2 23 16.4 101580 53
2009-08-03 07:51:13 51°18.329 2°34.77 12.9 317 16.4 101580 53
2009-08-03 07:51:19 51°18.332 2°34.739 13.2 320 16.5 101590 53
2009-08-03 07:51:23 51°18.334 2°34.719 13.4 318 16.5 101590 53
2009-08-03 07:51:28 51°18.336 2°34.693 13.2 317 16.5 101580 54
2009-08-03 07:51:33 51°18.338 2°34.667 10.3 322 16.5 101580 54
2009-08-03 07:51:38 51°18.34 2°34.641 12.6 322 16.5 101580 52
2009-08-03 07:51:43 51°18.342 2°34.615 10.9 321 16.5 101580 52
2009-08-03 07:51:48 51°18.344 2°34.589 12.7 319 16.5 101590 53
2009-08-03 07:51:53 51°18.346 2°34.563 12 323 16.5 101590 53
2009-08-03 07:51:58 51°18.348 2°34.537 13.2 322 16.5 101590 53
2009-08-03 07:52:03 51°18.349 2°34.511 12.6 321 16.5 101590 53
2009-08-03 07:52:07 51°18.351 2°34.49 10.9 321 16.5 101590 53
2009-08-03 07:52:13 51°18.353 2°34.458 10.4 321 16.5 101590 53
2009-08-03 07:52:18 51°18.355 2°34.433 10.5 322 16.5 101590 54
2009-08-03 07:52:23 51°18.357 2°34.407 11.9 322 16.5 101590 54
2009-08-03 07:52:28 51°18.359 2°34.381 9.8 322 16.4 101580 52
2009-08-03 07:52:34 51°18.362 2°34.35 9.9 320 16.4 101580 52
2009-08-03 07:52:38 51°18.363 2°34.329 11.7 321 16.4 101590 51
2009-08-03 07:52:43 51°18.366 2°34.303 10 322 16.4 101590 51
2009-08-03 07:52:48 51°18.368 2°34.278 11.4 322 16.3 101590 51
2009-08-03 07:52:54 51°18.37 2°34.247 13.1 320 16.3 101590 51
2009-08-03 07:52:58 51°18.372 2°34.226 13 320 16.3 101590 51
2009-08-03 07:53:03 51°18.374 2°34.2 9.9 319 16.3 101590 51
2009-08-03 07:53:08 51°18.376 2°34.174 10.6 319 16.3 101590 51
2009-08-03 07:53:13 51°18.378 2°34.148 12.2 307 16.3 101590 51
2009-08-03 07:53:18 51°18.381 2°34.122 11 321 16.3 101590 51
2009-08-03 07:53:23 51°18.383 2°34.097 12.4 319 16.3 101590 51
2009-08-03 07:53:28 51°18.385 2°34.071 10.5 320 16.3 101590 51
2009-08-03 07:53:33 51°18.387 2°34.045 12 305 16.3 101590 51
2009-08-03 07:53:38 51°18.388 2°34.019 10.3 319 16.3 101590 51
2009-08-03 07:53:43 51°18.39 2°33.993 9.9 325 16.3 101590 51
2009-08-03 07:53:48 51°18.393 2°33.968 11 321 16.3 101590 51
2009-08-03 07:53:53 51°18.395 2°33.942 13.5 323 16.3 101590 51
2009-08-03 07:53:59 51°18.398 2°33.911 10.4 324 16.3 101580 51
2009-08-03 07:54:03 51°18.4 2°33.89 11.1 324 16.3 101580 51
2009-08-03 07:54:08 51°18.402 2°33.864 13.3 323 16.3 101590 51
2009-08-03 07:54:14 51°18.405 2°33.833 13.1 320 16.3 101590 51
2009-08-03 07:54:18 51°18.407 2°33.812 10.5 324 16.3 101590 51
2009-08-03 07:54:23 51°18.409 2°33.785 11.5 323 16.3 101590 51
2009-08-03 07:54:28 51°18.412 2°33.759 13.1 323 16.4 101590 51
2009-08-03 07:54:33 51°18.414 2°33.734 13.2 324 16.4 101590 51
2009-08-03 07:54:38 51°18.416 2°33.708 12.9 324 16.4 101600 51
2009-08-03 07:54:43 51°18.419 2°33.682 10.8 323 16.4 101600 51
2009-08-03 07:54:48 51°18.421 2°33.657 13.1 323 16.4 101590 51
2009-08-03 07:54:53 51°18.423 2°33.631 10.7 320 16.4 101590 51
2009-08-03 07:54:58 51°18.425 2°33.606 12.9 322 16.4 101590 51
2009-08-03 07:55:03 51°18.428 2°33.58 12.6 324 16.4 101590 51
2009-08-03 07:55:08 51°18.43 2°33.554 10.8 322 16.4 101590 51
2009-08-03 07:55:13 51°18.432 2°33.529 12.6 326 16.4 101590 51
2009-08-03 07:55:18 51°18.434 2°33.503 12.9 325 16.4 101590 51
2009-08-03 07:55:23 51°18.436 2°33.477 10.2 323 16.4 101590 51
2009-08-03 07:55:28 51°18.439 2°33.452 9.9 323 16.5 101590 50
2009-08-03 07:55:33 51°18.441 2°33.426 12.5 303 16.5 101590 50
2009-08-03 07:55:38 51°18.443 2°33.401 12.2 325 16.5 101590 51
2009-08-03 07:55:43 51°18.445 2°33.375 12.2 324 16.5 101590 51
2009-08-03 07:55:48 51°18.447 2°33.349 12 323 16.5 101600 50
2009-08-03 07:55:53 51°18.449 2°33.324 9.3 326 16.5 101600 50
2009-08-03 07:55:58 51°18.452 2°33.298 12.2 326 16.5 101600 51
2009-08-03 07:56:03 51°18.453 2°33.272 10.7 324 16.5 101600 51
2009-08-03 07:56:07 51°18.455 2°33.252 12.7 324 16.5 101600 50
2009-08-03 07:56:13 51°18.457 2°33.221 10.8 321 16.5 101600 50
2009-08-03 07:56:18 51°18.459 2°33.195 11 322 16.5 101600 50
2009-08-03 07:56:23 51°18.461 2°33.169 12.9 320 16.5 101600 50
2009-08-03 07:56:28 51°18.463 2°33.144 10.5 321 16.5 101600 50
2009-08-03 07:56:33 51°18.466 2°33.118 12.8 321 16.5 101600 50
2009-08-03 07:56:38 51°18.468 2°33.093 10.3 321 16.5 101590 49
2009-08-03 07:56:43 51°18.47 2°33.067 12.1 322 16.5 101590 49
2009-08-03 07:56:48 51°18.473 2°33.042 10.6 320 16.5 101590 50
2009-08-03 07:56:54 51°18.475 2°33.011 10.4 321 16.5 101590 50
2009-08-03 07:56:58 51°18.477 2°32.991 10.3 321 16.5 101590 49
2009-08-03 07:57:03 51°18.48 2°32.965 10.8 322 16.5 101590 49
2009-08-03 07:57:08 51°18.482 2°32.94 10.5 321 16.5 101590 49
2009-08-03 07:57:13 51°18.484 2°32.915 10.4 320 16.5 101590 49
2009-08-03 07:57:18 51°18.486 2°32.889 10.4 321 16.5 101590 50
2009-08-03 07:57:23 51°18.489 2°32.863 12.3 321 16.5 101590 50
2009-08-03 07:57:28 51°18.491 2°32.838 11.9 322 16.5 101590 49
2009-08-03 07:57:34 51°18.493 2°32.807 9.9 323 16.5 101590 49
2009-08-03 07:57:38 51°18.495 2°32.787 10.2 322 16.5 101590 50
2009-08-03 07:57:43 51°18.497 2°32.761 13 324 16.5 101590 50
2009-08-03 07:57:48 51°18.499 2°32.735 13.5 321 16.5 101590 49
2009-08-03 07:57:54 51°18.501 2°32.705 13.1 323 16.5 101590 49
2009-08-03 07:57:58 51°18.502 2°32.684 12.8 323 16.5 101600 50
2009-08-03 07:58:03 51°18.504 2°32.658 10.5 323 16.5 101600 50
2009-08-03 07:58:08 51°18.506 2°32.633 12.7 323 16.5 101590 48
2009-08-03 07:58:13 51°18.508 2°32.607 13.7 322 16.5 101590 48
2009-08-03 07:58:18 51°18.51 2°32.582 13.4 321 16.5 101600 49
2009-08-03 07:58:23 51°18.512 2°32.556 12.8 322 16.5 101600 49
2009-08-03 07:58:27 51°18.514 2°32.535 10.6 324 16.5 101590 49
2009-08-03 07:58:33 51°18.516 2°32.505 12.3 321 16.5 101590 49
2009-08-03 07:58:38 51°18.518 2°32.479 10 321 16.5 101600 49
2009-08-03 07:58:43 51°18.52 2°32.453 13 321 16.5 101600 49
2009-08-03 07:58:48 51°18.522 2°32.427 13 322 16.6 101590 50
2009-08-03 07:58:53 51°18.524 2°32.402 10.2 321 16.6 101590 50
2009-08-03 07:58:58 51°18.525 2°32.376 10.8 321 16.6 101590 50
2009-08-03 07:59:03 51°18.527 2°32.35 11 322 16.6 101590 50
2009-08-03 07:59:08 51°18.529 2°32.324 13.5 322 16.6 101590 50
2009-08-03 07:59:13 51°18.531 2°32.298 10.5 323 16.6 101590 50
2009-08-03 07:59:18 51°18.533 2°32.273 10.6 324 16.6 101590 49
2009-08-03 07:59:23 51°18.534 2°32.247 12.9 323 16.6 101590 49
2009-08-03 07:59:28 51°18.536 2°32.221 12.3 325 16.6 101590 49
2009-08-03 07:59:33 51°18.538 2°32.195 12.2 325 16.6 101590 49
2009-08-03 07:59:38 51°18.539 2°32.169 13.3 326 16.6 101590 50
2009-08-03 07:59:43 51°18.541 2°32.144 13.6 324 16.6 101590 50
2009-08-03 07:59:48 51°18.543 2°32.118 12.8 324 16.6 101600 49
2009-08-03 07:59:54 51°18.546 2°32.087 10.6 322 16.6 101600 49
2009-08-03 07:59:58 51°18.548 2°32.067 10.6 323 16.6 101600 50
2009-08-03 08:00:03 51°18.552 2°32.042 13.4 323 16.6 101600 50
2009-08-03 08:00:08 51°18.554 2°32.016 13.2 323 16.6 101600 50
2009-08-03 08:00:13 51°18.557 2°31.991 11.3 301 16.6 101600 50
2009-08-03 08:00:18 51°18.56 2°31.965 10.7 322 16.6 101600 49
2009-08-03 08:00:23 51°18.564 2°31.94 10.2 323 16.6 101600 49
2009-08-03 08:00:27 51°18.567 2°31.92 12.2 322 16.6 101600 49
2009-08-03 08:00:33 51°18.571 2°31.89 10.4 322 16.6 101600 49
2009-08-03 08:00:38 51°18.575 2°31.865 13.1 321 16.6 101600 49
2009-08-03 08:00:43 51°18.579 2°31.84 13.1 320 16.6 101600 49
2009-08-03 08:00:48 51°18.583 2°31.815 12.8 320 16.6 101600 48
2009-08-03 08:00:53 51°18.586 2°31.79 10 320 16.6 101600 48
2009-08-03 08:00:58 51°18.59 2°31.765 10.8 321 16.6 101600 49